STARLINK-32556, 61858

Orbit data source: Space-Track

STARLINK-32556, 61858 is a payload satellite owned by SpaceX/Seattle (US) in LEO that was launched on Thu, 07 Nov 2024 UTC via an FALCON 9 launch vehicle from the Air Force Eastern Test Range (AFETR). Payloads include a variety of satellites, spacecraft, and rockets equipped with specific instruments for various scientific and technological missions. These include communications satellites like Starlink; space stations such as the ISS; scientific satellites like the Hubble; Earth observation satellites from companies like Planet Labs, Umbra, and HawkEye 360; GPS; miniature CubeSats for education and research; and military/defense satellites.

Loading next visibility...
STARLINK-32556 details
Identifier
61858, 2024-202P
Orbit
LEO
Last TLE update9 hours ago
Origin
Flag of USSpaceX/Seattle (US)
ManufacturerSpaceX/Seattle
MissionOperational spacecraft
Bus & MotorSTARLINK V2M, Unknown motor
Mass730 kg wet, ~700 kg dry
Launch date (UTC)
2024-11-07 (2 months ago)
Launch vehicle
FALCON 9
Launch site
Air Force Eastern Test Range (AFETR)
Object type
Payload
Rocket body
Debris
Shape & HBRUnknown
Radar Cross SectionLarge (>1 m²)

Expand to show TLE details & history

TLE from 9 hours ago
0 STARLINK-32556
1 61858U 24202P   24361.58168053  .00000046  00000-0  83786-5 0  9997
2 61858  43.0004 200.9352 0001909 257.6518 102.4125 15.40700177  8235
Epoch: 2024-12-26T13:57Z
Definitive object data (Epoch: 2024-12-26T13:57:37.197Z)
Latitude-0.00002°
Longitude-104.02883°
Altitude444.096 km
Speed7.647 km/s
True Right ascension13h 23m 44s
True Declination0° 00' 00"
Sunlit
Object was in daylight at TLE epoch
Visualization TLE readout
Latitude-39.80566°
Longitude-168.90622°
Altitude454.876 km
Speed7.641 km/s
Apparent Right ascension09h 42m 12s
Apparent Declination-40° 05' 39"
Sunlit
Object is in daylight
Visualization observer readout
Local Sidereal Time22:22:59
Azimuth94.584° ESE
Elevation-82.192°
Doppler factor1
Orbital elements
Apogee altitude447.301 km
Perigee altitude444.695 km
Semi-major axis6,824.135 km
Eccentricity0.0001909
Inclination43.0004°
RAAN200.9352°
Arg. of periapsis257.6518°
True anomaly102.43386°
Mean anomaly102.4125°
Eccentric anomaly102.42318°
Mean motion3.8501 °/min
BSTAR0.0000083786
Orbital period93.5 mins
Loading maneuver chart data...
Loading historical data...
Loading historical data...
Loading historical data...
Loading historical data...
Loading historical data...
Loading historical data...
Loading historical data...

STARLINK-32556 Visibility forecast

Observer location: undefined°, undefined

Span
Click to sort rows by Start time (UTC) header in descending order
Start Az.
Max El. time (UTC)
Max El. Az.
Max El.
End time (UTC)
End Az.
5 mins2024-12-27 16:37:45.099Z206.833° SW2024-12-27 16:39:45.099Z150.701° SSE30.137°2024-12-27 16:42:45.099Z84.926° E
5 mins2024-12-27 18:15:45.099Z269.755° W2024-12-27 18:17:45.099Z351.734° N42.344°2024-12-27 18:20:45.099Z69.243° E
5 mins2024-12-27 19:53:45.099Z293.762° NW2024-12-27 19:55:45.099Z345.43° N37.259°2024-12-27 19:58:45.099Z79.212° E
5 mins2024-12-27 21:31:45.099Z283.16° WNW2024-12-27 21:33:45.099Z252.566° W40.702°2024-12-27 21:36:45.099Z121.046° SE
|